Weather History for Jackson, MS

Change the Weather History Date:

Monday, September 24, 2012

  Actual Average Record
Temperature  
Mean Temperature 73 °F 73 °F  
Max Temperature 84 °F 84 °F 101 °F (1921)
Min Temperature 61 °F 62 °F 46 °F (1982)
Degree Days  
Heating Degree Days 0 0  
Month to date heating degree days 1 0  
Since 1 July heating degree days 1 0  
Cooling Degree Days 8 8  
Month to date cooling degree days 277 283  
Year to date cooling degree days 2382 2082  
Growing Degree Days 22 (Base 50)    
Moisture  
Dew Point 56 °F    
Average Humidity 59    
Maximum Humidity 78    
Minimum Humidity 40    
Precipitation  
Precipitation 0.00 in 0.10 in 2.24 in (1991)
Month to date precipitation 1.93 2.38  
Year to date precipitation 54.64 39.66  
Sea Level Pressure  
Sea Level Pressure 30.15 in    
Wind  
Wind Speed 4 mph (East)    
Max Wind Speed 8 mph    
Max Gust Speed 12 mph    
Visibility 10 miles    
Events      
T = Trace of Precipitation, MM = Missing Value Source: NWS Daily Summary

Daily Weather History Graph

Daily Weather History Graph

Search for Another Location

Airport:

Trip Planner

Search our weather history database for the weather conditions in past years. The results will help you decide how hot, cold, wet, or windy it might be!

Date:

Astronomy

Sep. 24, 2012 Rise Set
Actual Time 6:50 AM CDT 6:53 PM CDT
Civil Twilight 6:25 AM CDT 7:18 PM CDT
Nautical Twilight 5:57 AM CDT 7:46 PM CDT
Astronomical Twilight 5:28 AM CDT 8:15 PM CDT
Moon 3:24 PM CDT (9/24) 1:23 AM CDT (9/24)
Length of Visible Light 12h 52m
Length of Day
12h 03m
Waxing Gibbous, 71% of the Moon is Illuminated
Sep 24
Waxing Gibbous
Sep 29
Full
Oct 8
Last Quarter
Oct 15
New
Oct 21
First Quarter

Hourly Weather History & Observations

Time (CDT) Temp. Heat Index Dew Point Humidity Pressure Visibility Wind Dir Wind Speed Gust Speed Precip Events Conditions
12:54 AM 66.9 °F - 57.9 °F 73% 30.17 in 10.0 mi NE 3.5 mph - N/A   Clear
1:54 AM 66.0 °F - 57.0 °F 73% 30.17 in 10.0 mi NE 4.6 mph - N/A   Clear
2:54 AM 64.9 °F - 55.0 °F 70% 30.16 in 10.0 mi NE 5.8 mph - N/A   Clear
3:54 AM 64.0 °F - 53.1 °F 67% 30.18 in 10.0 mi NE 4.6 mph - N/A   Clear
4:54 AM 64.0 °F - 52.0 °F 65% 30.18 in 10.0 mi NE 3.5 mph - N/A   Scattered Clouds
5:54 AM 62.1 °F - 51.1 °F 67% 30.19 in 10.0 mi Calm Calm - N/A   Partly Cloudy
6:54 AM 61.0 °F - 51.1 °F 70% 30.20 in 10.0 mi Calm Calm - N/A   Partly Cloudy
7:54 AM 62.1 °F - 51.1 °F 67% 30.20 in 10.0 mi NE 3.5 mph - N/A   Clear
8:54 AM 66.0 °F - 48.0 °F 52% 30.20 in 10.0 mi ENE 6.9 mph - N/A   Clear
9:54 AM 71.1 °F - 48.9 °F 45% 30.21 in 10.0 mi ESE 8.1 mph - N/A   Clear
10:54 AM 73.9 °F - 48.9 °F 41% 30.21 in 10.0 mi East 4.6 mph - N/A   Clear
11:54 AM 77.0 °F - 51.1 °F 40% 30.20 in 10.0 mi East 4.6 mph - N/A   Clear
12:54 PM 78.1 °F - 53.1 °F 42% 30.18 in 10.0 mi Calm Calm - N/A   Clear
1:54 PM 80.6 °F 80.5 °F 55.4 °F 42% 30.15 in 10.0 mi Calm Calm - N/A   Clear
2:54 PM 81.0 °F 81.1 °F 57.9 °F 45% 30.10 in 10.0 mi SW 4.6 mph - N/A   Clear
3:54 PM 82.0 °F 82.4 °F 60.1 °F 47% 30.10 in 10.0 mi Calm Calm - N/A   Clear
4:54 PM 82.0 °F 82.4 °F 60.1 °F 47% 30.09 in 10.0 mi ENE 4.6 mph - N/A   Clear
5:54 PM 80.1 °F 81.2 °F 62.1 °F 54% 30.09 in 10.0 mi East 5.8 mph - N/A   Clear
6:54 PM 73.9 °F - 64.0 °F 71% 30.09 in 10.0 mi East 5.8 mph - N/A   Clear
7:54 PM 72.0 °F - 63.0 °F 73% 30.09 in 10.0 mi East 4.6 mph - N/A   Clear
8:54 PM 70.0 °F - 62.1 °F 76% 30.11 in 10.0 mi ESE 3.5 mph - N/A   Clear
9:54 PM 69.1 °F - 61.0 °F 75% 30.11 in 10.0 mi SSE 4.6 mph - N/A   Clear
10:54 PM 68.0 °F - 61.0 °F 78% 30.11 in 10.0 mi SSE 6.9 mph - N/A   Clear
11:54 PM 68.0 °F - 60.1 °F 76% 30.10 in 10.0 mi SSE 6.9 mph - N/A   Clear